Regional Weather Roundup
Issued by NWS

Home | Current Version | Previous Version | Graphics & Text | Print | Product List | Glossary On
Versions: 1 2 3 4 5 6 7 8 9 10 11 12 13 14 15 16 17 18 19 20 21 22 23 24 25 26 27
000
ASUS45 KCYS 221710
RWRWY

WYOMING REGIONAL WEATHER ROUNDUP
NATIONAL WEATHER SERVICE CHEYENNE WY
1100 AM MDT TUE APR 22 2014

NOTE:  "FAIR" INDICATES FEW OR NO CLOUDS BELOW 12,000 FEET
WITH NO SIGNIFICANT WEATHER AND/OR OBSTRUCTIONS TO VISIBILITY.

WYZ001-221800-
YELLOWSTONE NATIONAL PARK

CITY           SKY/WX    TMP DP  RH WIND       PRES   REMARKS
LK YELLOWSTONE   N/A     42  35  76 CALM      29.89F
W YELLOWSTONE  NOT AVBL

$$
WYZ002>013-054>058-071-098>099-221800-
NORTHERN WYOMING

CITY           SKY/WX    TMP DP  RH WIND       PRES   REMARKS
JACKSON        CLOUDY    46  39  76 S3        29.86F
CODY           PTSUNNY   63  34  34 SE8       29.76F
GREYBULL       CLOUDY    61  34  36 E5        29.75F
WORLAND        PTSUNNY   58  30  34 E3        29.76F
SHERIDAN         N/A     57  30  35 S6          N/A
BUFFALO        CLOUDY    60  34  37 CALM      29.80S
GILLETTE       CLOUDY    57  36  45 SE12      29.79F
HULETT         PTSUNNY   63  34  34 CALM      29.81
NEWCASTLE      FAIR      59  32  36 SE10      29.84

$$
WYZ014>020-022>026-101>103-221800-
CENTRAL WYOMING

CITY           SKY/WX    TMP DP  RH WIND       PRES   REMARKS
BIG PINEY      PTSUNNY   58  31  35 SE9       29.88F
PINEDALE       PTSUNNY   54  32  43 E6        29.89F
DUBOIS         PTSUNNY   54  32  43 S3        29.86S
LANDER         CLOUDY    56  31  38 S6        29.81F
RIVERTON       PTSUNNY   54  28  36 SE8       29.82F
CASPER         CLOUDY    63  34  33 S13       29.83F
DOUGLAS        CLOUDY    54  37  52 SE8       29.86F

$$
WYZ021-027>030-104>119-221800-
SOUTHERN WYOMING

CITY           SKY/WX    TMP DP  RH WIND       PRES   REMARKS
EVANSTON         N/A     61  27  27 SW32G40   29.84F
KEMMERER       CLOUDY    61  30  31 S13G20    29.87F
FORT BRIDGER   FAIR      60  33  35 SE8       29.89F
ROCK SPRINGS   CLOUDY    63  29  27 SW8       29.87F
DIXON          PTSUNNY   66  30  26 S21G29    29.95F
RAWLINS        PTSUNNY   65  27  23 S23G36    29.90F
SARATOGA       PTSUNNY   64  30  27 S16G25    29.95F
LARAMIE        PTSUNNY   63  28  26 SW20G25   29.98F
CHEYENNE       CLOUDY    63  32  31 S12       29.96F
TORRINGTON     CLOUDY    63  42  46 S9        29.87F
PINE BLUFFS    FAIR      61  41  48 S15       29.94F

$$



USA.gov is the U.S. government's official web portal to all federal, state and local government web resources and services.